Time,TemperatureF,DewpointF,PressureIn,WindDirection,WindDirectionDegrees,WindSpeedMPH,WindSpeedGustMPH,Humidity,HourlyPrecipIn,Conditions,Clouds,dailyrainin,SoftwareType,DateUTC
2013-08-23 00:00:00,81.9,74.3,29.94,North,-999,0.0,0.0,78,0.00,,,-99.99,FreeWX 2.04,2013-08-23 05:00:00,
2013-08-23 00:05:00,81.9,74.3,29.94,North,-999,0.0,0.0,78,0.00,,,-99.99,FreeWX 2.04,2013-08-23 05:05:00,
2013-08-23 00:10:00,81.9,74.3,29.94,North,-999,0.0,0.0,78,0.00,,,-99.99,FreeWX 2.04,2013-08-23 05:10:00,
2013-08-23 00:15:00,81.7,73.8,29.94,North,-999,0.0,0.0,77,0.00,,,-99.99,FreeWX 2.04,2013-08-23 05:15:00,
2013-08-23 00:20:00,81.7,74.1,29.94,North,-999,0.0,0.0,78,0.00,,,-99.99,FreeWX 2.04,2013-08-23 05:20:00,
2013-08-23 00:25:00,81.7,74.1,29.94,North,-999,0.0,0.0,78,0.00,,,-99.99,FreeWX 2.04,2013-08-23 05:25:00,
2013-08-23 00:30:00,81.7,74.1,29.94,North,-999,0.0,0.0,78,0.00,,,-99.99,FreeWX 2.04,2013-08-23 05:30:00,
2013-08-23 00:35:00,81.5,73.9,29.94,North,-999,0.0,0.0,78,0.00,,,-99.99,FreeWX 2.04,2013-08-23 05:35:00,
2013-08-23 00:40:00,81.5,73.9,29.94,North,-999,0.0,0.0,78,0.00,,,-99.99,FreeWX 2.04,2013-08-23 05:40:00,
2013-08-23 00:45:00,81.5,73.9,29.94,North,-999,0.0,0.0,78,0.00,,,-99.99,FreeWX 2.04,2013-08-23 05:45:00,
2013-08-23 00:50:00,81.5,73.9,29.94,North,-999,0.0,0.0,78,0.00,,,-99.99,FreeWX 2.04,2013-08-23 05:50:00,
2013-08-23 00:55:00,81.5,73.9,29.94,North,-999,0.0,0.0,78,0.00,,,-99.99,FreeWX 2.04,2013-08-23 05:55:00,
2013-08-23 01:00:00,81.5,73.9,29.94,North,-999,0.0,0.0,78,0.00,,,-99.99,FreeWX 2.04,2013-08-23 06:00:00,
2013-08-23 01:05:00,81.5,73.9,29.94,North,-999,0.0,0.0,78,0.00,,,-99.99,FreeWX 2.04,2013-08-23 06:05:00,
2013-08-23 01:10:00,81.5,73.9,29.94,North,-999,0.0,0.0,78,0.00,,,-99.99,FreeWX 2.04,2013-08-23 06:10:00,
2013-08-23 01:15:00,81.3,74.1,29.94,North,-999,0.0,0.0,79,0.00,,,-99.99,FreeWX 2.04,2013-08-23 06:15:00,
2013-08-23 01:20:00,81.3,74.1,29.94,North,-999,0.0,0.0,79,0.00,,,-99.99,FreeWX 2.04,2013-08-23 06:20:00,
2013-08-23 01:25:00,81.3,74.1,29.94,North,-999,0.0,0.0,79,0.00,,,-99.99,FreeWX 2.04,2013-08-23 06:25:00,
2013-08-23 01:30:00,81.1,73.9,29.91,North,-999,0.0,0.0,79,0.00,,,-99.99,FreeWX 2.04,2013-08-23 06:30:00,
2013-08-23 01:35:00,81.1,73.9,29.91,North,-999,0.0,0.0,79,0.00,,,-99.99,FreeWX 2.04,2013-08-23 06:35:00,
2013-08-23 01:41:00,81.3,74.5,29.91,North,-999,0.0,0.0,80,0.00,,,-99.99,FreeWX 2.04,2013-08-23 06:41:00,
2013-08-23 01:46:00,81.3,74.5,29.91,North,-999,0.0,0.0,80,0.00,,,-99.99,FreeWX 2.04,2013-08-23 06:46:00,
2013-08-23 01:51:00,81.1,74.3,29.91,North,-999,0.0,0.0,80,0.00,,,-99.99,FreeWX 2.04,2013-08-23 06:51:00,
2013-08-23 01:56:00,81.1,74.3,29.91,North,-999,0.0,0.0,80,0.00,,,-99.99,FreeWX 2.04,2013-08-23 06:56:00,
2013-08-23 02:01:00,81.1,74.3,29.91,North,-999,0.0,0.0,80,0.00,,,-99.99,FreeWX 2.04,2013-08-23 07:01:00,
2013-08-23 02:06:00,81.1,74.3,29.91,North,-999,0.0,0.0,80,0.00,,,-99.99,FreeWX 2.04,2013-08-23 07:06:00,
2013-08-23 02:11:00,81.1,74.3,29.91,North,-999,0.0,0.0,80,0.00,,,-99.99,FreeWX 2.04,2013-08-23 07:11:00,
2013-08-23 02:16:00,81.1,74.3,29.91,North,-999,0.0,0.0,80,0.00,,,-99.99,FreeWX 2.04,2013-08-23 07:16:00,
2013-08-23 02:21:00,81.1,74.3,29.91,North,-999,0.0,0.0,80,0.00,,,-99.99,FreeWX 2.04,2013-08-23 07:21:00,
2013-08-23 02:26:00,81.1,74.3,29.91,North,-999,0.0,0.0,80,0.00,,,-99.99,FreeWX 2.04,2013-08-23 07:26:00,
2013-08-23 02:31:00,81.0,74.1,29.91,North,-999,0.0,0.0,80,0.00,,,-99.99,FreeWX 2.04,2013-08-23 07:31:00,
2013-08-23 02:36:00,81.0,73.8,29.91,North,-999,0.0,0.0,79,0.00,,,-99.99,FreeWX 2.04,2013-08-23 07:36:00,
2013-08-23 02:41:00,81.0,74.1,29.91,North,-999,0.0,0.0,80,0.00,,,-99.99,FreeWX 2.04,2013-08-23 07:41:00,
2013-08-23 02:46:00,81.0,74.1,29.91,North,-999,0.0,0.0,80,0.00,,,-99.99,FreeWX 2.04,2013-08-23 07:46:00,
2013-08-23 02:51:00,81.0,74.1,29.91,North,-999,0.0,0.0,80,0.00,,,-99.99,FreeWX 2.04,2013-08-23 07:51:00,
2013-08-23 02:56:00,81.0,74.1,29.91,North,-999,0.0,0.0,80,0.00,,,-99.99,FreeWX 2.04,2013-08-23 07:56:00,
2013-08-23 03:01:00,81.0,74.1,29.91,North,-999,0.0,0.0,80,0.00,,,-99.99,FreeWX 2.04,2013-08-23 08:01:00,
2013-08-23 03:06:00,81.0,74.1,29.91,North,-999,0.0,0.0,80,0.00,,,-99.99,FreeWX 2.04,2013-08-23 08:06:00,
2013-08-23 03:11:00,81.0,74.1,29.91,North,-999,0.0,0.0,80,0.00,,,-99.99,FreeWX 2.04,2013-08-23 08:11:00,
2013-08-23 03:16:00,81.0,74.1,29.91,North,-999,0.0,0.0,80,0.00,,,-99.99,FreeWX 2.04,2013-08-23 08:16:00,
2013-08-23 03:21:00,81.0,74.1,29.91,North,-999,0.0,0.0,80,0.00,,,-99.99,FreeWX 2.04,2013-08-23 08:21:00,
2013-08-23 03:26:00,81.0,74.1,29.91,North,-999,0.0,0.0,80,0.00,,,-99.99,FreeWX 2.04,2013-08-23 08:26:00,
2013-08-23 03:31:00,80.8,73.9,29.91,North,-999,0.0,0.0,80,0.00,,,-99.99,FreeWX 2.04,2013-08-23 08:31:00,
2013-08-23 03:36:00,80.8,73.9,29.91,North,-999,0.0,0.0,80,0.00,,,-99.99,FreeWX 2.04,2013-08-23 08:36:00,
2013-08-23 03:41:00,80.8,73.9,29.91,North,-999,0.0,0.0,80,0.00,,,-99.99,FreeWX 2.04,2013-08-23 08:41:00,
2013-08-23 03:46:00,81.0,74.1,29.91,North,-999,0.0,0.0,80,0.00,,,-99.99,FreeWX 2.04,2013-08-23 08:46:00,
2013-08-23 03:51:00,81.0,74.1,29.91,North,-999,0.0,0.0,80,0.00,,,-99.99,FreeWX 2.04,2013-08-23 08:51:00,
2013-08-23 03:56:00,80.8,73.9,29.91,North,-999,0.0,0.0,80,0.00,,,-99.99,FreeWX 2.04,2013-08-23 08:56:00,
2013-08-23 04:01:00,80.8,73.9,29.91,North,-999,0.0,0.0,80,0.00,,,-99.99,FreeWX 2.04,2013-08-23 09:01:00,
2013-08-23 04:06:00,80.8,73.9,29.91,North,-999,0.0,0.0,80,0.00,,,-99.99,FreeWX 2.04,2013-08-23 09:06:00,
2013-08-23 04:11:00,80.8,73.9,29.91,North,-999,0.0,0.0,80,0.00,,,-99.99,FreeWX 2.04,2013-08-23 09:11:00,
2013-08-23 04:16:00,80.8,73.9,29.91,North,-999,0.0,0.0,80,0.00,,,-99.99,FreeWX 2.04,2013-08-23 09:16:00,
2013-08-23 04:21:00,80.8,73.9,29.91,North,-999,0.0,0.0,80,0.00,,,-99.99,FreeWX 2.04,2013-08-23 09:21:00,
2013-08-23 04:26:00,80.8,73.9,29.91,North,-999,0.0,0.0,80,0.00,,,-99.99,FreeWX 2.04,2013-08-23 09:26:00,
2013-08-23 04:31:00,80.8,73.9,29.91,North,-999,0.0,0.0,80,0.00,,,-99.99,FreeWX 2.04,2013-08-23 09:31:00,
2013-08-23 04:36:00,80.8,73.9,29.91,North,-999,0.0,0.0,80,0.00,,,-99.99,FreeWX 2.04,2013-08-23 09:36:00,
2013-08-23 04:41:00,80.8,73.9,29.91,North,-999,0.0,0.0,80,0.00,,,-99.99,FreeWX 2.04,2013-08-23 09:41:00,
2013-08-23 04:46:00,80.8,73.9,29.91,North,-999,0.0,0.0,80,0.00,,,-99.99,FreeWX 2.04,2013-08-23 09:46:00,
2013-08-23 04:51:00,80.8,73.9,29.91,North,-999,0.0,0.0,80,0.00,,,-99.99,FreeWX 2.04,2013-08-23 09:51:00,
2013-08-23 04:56:00,80.8,73.9,29.91,North,-999,0.0,0.0,80,0.00,,,-99.99,FreeWX 2.04,2013-08-23 09:56:00,
2013-08-23 05:01:00,80.6,73.8,29.91,North,-999,0.0,0.0,80,0.00,,,-99.99,FreeWX 2.04,2013-08-23 10:01:00,
2013-08-23 05:06:00,80.6,74.3,29.91,North,-999,0.0,0.0,81,0.00,,,-99.99,FreeWX 2.04,2013-08-23 10:06:00,
2013-08-23 05:11:00,80.4,74.1,29.91,North,-999,0.0,0.0,81,0.00,,,-99.99,FreeWX 2.04,2013-08-23 10:11:00,
2013-08-23 05:16:00,80.4,74.1,29.91,North,-999,0.0,0.0,81,0.00,,,-99.99,FreeWX 2.04,2013-08-23 10:16:00,
2013-08-23 05:21:00,80.4,74.1,29.91,North,-999,0.0,0.0,81,0.00,,,-99.99,FreeWX 2.04,2013-08-23 10:21:00,
2013-08-23 05:26:00,80.2,73.9,29.91,North,-999,0.0,0.0,81,0.00,,,-99.99,FreeWX 2.04,2013-08-23 10:26:00,
2013-08-23 05:31:00,80.2,73.9,29.91,North,-999,0.0,0.0,81,0.00,,,-99.99,FreeWX 2.04,2013-08-23 10:31:00,
2013-08-23 05:36:00,80.1,74.1,29.91,North,-999,0.0,0.0,82,0.00,,,-99.99,FreeWX 2.04,2013-08-23 10:36:00,
2013-08-23 05:41:00,80.1,74.1,29.91,North,-999,0.0,0.0,82,0.00,,,-99.99,FreeWX 2.04,2013-08-23 10:41:00,
2013-08-23 05:46:00,80.1,74.1,29.91,North,-999,0.0,0.0,82,0.00,,,-99.99,FreeWX 2.04,2013-08-23 10:46:00,
2013-08-23 05:51:00,79.9,73.9,29.91,North,-999,0.0,0.0,82,0.00,,,-99.99,FreeWX 2.04,2013-08-23 10:51:00,
2013-08-23 05:56:00,79.9,73.9,29.91,North,-999,0.0,0.0,82,0.00,,,-99.99,FreeWX 2.04,2013-08-23 10:56:00,
2013-08-23 06:01:00,79.7,73.8,29.91,North,-999,0.0,0.0,82,0.00,,,-99.99,FreeWX 2.04,2013-08-23 11:01:00,
2013-08-23 06:06:00,79.5,73.9,29.91,North,-999,0.0,0.0,83,0.00,,,-99.99,FreeWX 2.04,2013-08-23 11:06:00,
2013-08-23 06:11:00,79.5,73.9,29.91,North,-999,0.0,0.0,83,0.00,,,-99.99,FreeWX 2.04,2013-08-23 11:11:00,
2013-08-23 06:16:00,79.5,73.9,29.91,North,-999,0.0,0.0,83,0.00,,,-99.99,FreeWX 2.04,2013-08-23 11:16:00,
2013-08-23 06:21:00,79.5,73.9,29.91,North,-999,0.0,0.0,83,0.00,,,-99.99,FreeWX 2.04,2013-08-23 11:21:00,
2013-08-23 06:26:00,79.5,73.9,29.91,North,-999,0.0,0.0,83,0.00,,,-99.99,FreeWX 2.04,2013-08-23 11:26:00,
2013-08-23 06:31:00,79.5,73.9,29.91,North,-999,0.0,0.0,83,0.00,,,-99.99,FreeWX 2.04,2013-08-23 11:31:00,
2013-08-23 06:36:00,79.3,73.8,29.91,North,-999,0.0,0.0,83,0.00,,,-99.99,FreeWX 2.04,2013-08-23 11:36:00,
2013-08-23 06:41:00,79.3,73.8,29.91,North,-999,0.0,0.0,83,0.00,,,-99.99,FreeWX 2.04,2013-08-23 11:41:00,
2013-08-23 06:46:00,79.3,73.8,29.91,North,-999,0.0,0.0,83,0.00,,,-99.99,FreeWX 2.04,2013-08-23 11:46:00,
2013-08-23 06:51:00,79.2,73.6,29.91,North,-999,0.0,0.0,83,0.00,,,-99.99,FreeWX 2.04,2013-08-23 11:51:00,
2013-08-23 06:56:00,79.2,73.9,29.91,North,-999,0.0,0.0,84,0.00,,,-99.99,FreeWX 2.04,2013-08-23 11:56:00,
2013-08-23 07:01:00,79.2,73.9,29.91,North,-999,0.0,0.0,84,0.00,,,-99.99,FreeWX 2.04,2013-08-23 12:01:00,
2013-08-23 07:06:00,79.0,73.8,29.91,North,-999,0.0,0.0,84,0.00,,,-99.99,FreeWX 2.04,2013-08-23 12:06:00,
2013-08-23 07:11:00,79.0,73.8,29.91,North,-999,0.0,0.0,84,0.00,,,-99.99,FreeWX 2.04,2013-08-23 12:11:00,
2013-08-23 07:16:00,79.0,73.8,29.91,North,-999,0.0,0.0,84,0.00,,,-99.99,FreeWX 2.04,2013-08-23 12:16:00,
2013-08-23 07:21:00,79.0,74.1,29.91,North,-999,0.0,0.0,85,0.00,,,-99.99,FreeWX 2.04,2013-08-23 12:21:00,
2013-08-23 07:26:00,79.0,74.1,29.91,North,-999,0.0,0.0,85,0.00,,,-99.99,FreeWX 2.04,2013-08-23 12:26:00,
2013-08-23 07:31:00,79.2,74.3,29.91,North,-999,0.0,0.0,85,0.00,,,-99.99,FreeWX 2.04,2013-08-23 12:31:00,
2013-08-23 07:36:00,79.2,74.3,29.91,North,-999,0.0,0.0,85,0.00,,,-99.99,FreeWX 2.04,2013-08-23 12:36:00,
2013-08-23 07:41:00,79.3,74.5,29.91,North,-999,0.0,0.0,85,0.00,,,-99.99,FreeWX 2.04,2013-08-23 12:41:00,
2013-08-23 07:46:00,79.5,74.7,29.91,North,-999,0.0,0.0,85,0.00,,,-99.99,FreeWX 2.04,2013-08-23 12:46:00,
2013-08-23 07:51:00,79.5,74.7,29.91,North,-999,0.0,0.0,85,0.00,,,-99.99,FreeWX 2.04,2013-08-23 12:51:00,
2013-08-23 07:56:00,79.9,75.0,29.91,North,-999,0.0,0.0,85,0.00,,,-99.99,FreeWX 2.04,2013-08-23 12:56:00,
2013-08-23 08:01:00,80.1,75.6,29.91,North,-999,0.0,0.0,86,0.00,,,-99.99,FreeWX 2.04,2013-08-23 13:01:00,
2013-08-23 08:06:00,80.4,75.6,29.91,North,-999,0.0,0.0,85,0.00,,,-99.99,FreeWX 2.04,2013-08-23 13:06:00,
2013-08-23 08:11:00,80.8,75.9,29.91,North,-999,0.0,0.0,85,0.00,,,-99.99,FreeWX 2.04,2013-08-23 13:11:00,
2013-08-23 08:16:00,81.0,75.7,29.94,North,-999,0.0,0.0,84,0.00,,,-99.99,FreeWX 2.04,2013-08-23 13:16:00,
2013-08-23 08:21:00,81.3,75.6,29.94,North,-999,0.0,0.0,83,0.00,,,-99.99,FreeWX 2.04,2013-08-23 13:21:00,
2013-08-23 08:26:00,81.5,75.4,29.94,North,-999,0.0,0.0,82,0.00,,,-99.99,FreeWX 2.04,2013-08-23 13:26:00,
2013-08-23 08:31:00,81.9,75.7,29.94,North,-999,0.0,0.0,82,0.00,,,-99.99,FreeWX 2.04,2013-08-23 13:31:00,
2013-08-23 08:36:00,81.9,75.4,29.94,North,-999,0.0,0.0,81,0.00,,,-99.99,FreeWX 2.04,2013-08-23 13:36:00,
2013-08-23 08:41:00,82.2,75.7,29.94,North,-999,0.0,0.0,81,0.00,,,-99.99,FreeWX 2.04,2013-08-23 13:41:00,
2013-08-23 08:46:00,82.4,75.6,29.94,North,-999,0.0,0.0,80,0.00,,,-99.99,FreeWX 2.04,2013-08-23 13:46:00,
2013-08-23 08:51:00,82.6,75.0,29.94,North,-999,0.0,0.0,78,0.00,,,-99.99,FreeWX 2.04,2013-08-23 13:51:00,
2013-08-23 08:56:00,82.8,74.8,29.94,North,-999,0.0,0.0,77,0.00,,,-99.99,FreeWX 2.04,2013-08-23 13:56:00,
2013-08-23 09:01:00,82.9,75.0,29.94,North,-999,0.0,0.0,77,0.00,,,-99.99,FreeWX 2.04,2013-08-23 14:01:00,
2013-08-23 09:06:00,82.9,74.7,29.94,North,-999,0.0,0.0,76,0.00,,,-99.99,FreeWX 2.04,2013-08-23 14:06:00,
2013-08-23 09:11:00,83.1,74.7,29.94,North,-999,0.0,0.0,76,0.00,,,-99.99,FreeWX 2.04,2013-08-23 14:11:00,
2013-08-23 09:16:00,83.1,74.3,29.94,North,-999,0.0,0.0,75,0.00,,,-99.99,FreeWX 2.04,2013-08-23 14:16:00,
2013-08-23 09:21:00,83.1,74.3,29.94,North,-999,0.0,0.0,75,0.00,,,-99.99,FreeWX 2.04,2013-08-23 14:21:00,
2013-08-23 09:26:00,83.3,74.5,29.94,North,-999,0.0,0.0,75,0.00,,,-99.99,FreeWX 2.04,2013-08-23 14:26:00,
2013-08-23 09:31:00,83.7,74.8,29.94,North,-999,0.0,0.0,75,0.00,,,-99.99,FreeWX 2.04,2013-08-23 14:31:00,
2013-08-23 09:36:00,84.0,74.5,29.94,North,-999,0.0,0.0,73,0.00,,,-99.99,FreeWX 2.04,2013-08-23 14:36:00,
2013-08-23 09:41:00,84.2,74.1,29.94,North,-999,0.0,0.0,72,0.00,,,-99.99,FreeWX 2.04,2013-08-23 14:41:00,
2013-08-23 09:46:00,84.4,73.9,29.94,North,-999,0.0,0.0,71,0.00,,,-99.99,FreeWX 2.04,2013-08-23 14:46:00,
2013-08-23 09:51:00,84.4,73.6,29.94,North,-999,0.0,0.0,70,0.00,,,-99.99,FreeWX 2.04,2013-08-23 14:51:00,
2013-08-23 09:56:00,84.4,72.7,29.94,North,-999,0.0,0.0,68,0.00,,,-99.99,FreeWX 2.04,2013-08-23 14:56:00,
2013-08-23 10:01:00,84.7,73.0,29.94,North,-999,0.0,0.0,68,0.00,,,-99.99,FreeWX 2.04,2013-08-23 15:01:00,
2013-08-23 10:06:00,84.9,72.7,29.94,North,-999,0.0,0.0,67,0.00,,,-99.99,FreeWX 2.04,2013-08-23 15:06:00,
2013-08-23 10:11:00,85.1,72.9,29.94,North,-999,0.0,0.0,67,0.00,,,-99.99,FreeWX 2.04,2013-08-23 15:11:00,
2013-08-23 10:16:00,85.3,72.7,29.94,North,-999,0.0,0.0,66,0.00,,,-99.99,FreeWX 2.04,2013-08-23 15:16:00,
2013-08-23 10:21:00,85.3,72.7,29.94,North,-999,0.0,0.0,66,0.00,,,-99.99,FreeWX 2.04,2013-08-23 15:21:00,
2013-08-23 10:26:00,85.5,72.9,29.94,North,-999,0.0,0.0,66,0.00,,,-99.99,FreeWX 2.04,2013-08-23 15:26:00,
2013-08-23 10:31:00,85.8,72.1,29.94,North,-999,0.0,0.0,64,0.00,,,-99.99,FreeWX 2.04,2013-08-23 15:31:00,
2013-08-23 10:36:00,86.2,72.5,29.94,North,-999,0.0,0.0,64,0.00,,,-99.99,FreeWX 2.04,2013-08-23 15:36:00,
2013-08-23 10:41:00,86.4,73.2,29.94,North,-999,0.0,0.0,65,0.00,,,-99.99,FreeWX 2.04,2013-08-23 15:41:00,
2013-08-23 10:46:00,86.5,72.9,29.94,North,-999,0.0,0.0,64,0.00,,,-99.99,FreeWX 2.04,2013-08-23 15:46:00,
2013-08-23 10:51:00,87.1,72.9,29.94,North,-999,0.0,0.0,63,0.00,,,-99.99,FreeWX 2.04,2013-08-23 15:51:00,
2013-08-23 10:56:00,87.8,73.0,29.94,North,-999,0.0,0.0,62,0.00,,,-99.99,FreeWX 2.04,2013-08-23 15:56:00,
2013-08-23 11:01:00,88.3,73.2,29.97,North,-999,0.0,0.0,61,0.00,,,-99.99,FreeWX 2.04,2013-08-23 16:01:00,
2013-08-23 11:06:00,89.1,73.4,29.97,North,-999,0.0,0.0,60,0.00,,,-99.99,FreeWX 2.04,2013-08-23 16:06:00,
2013-08-23 11:11:00,89.8,73.0,29.97,North,-999,0.0,0.0,58,0.00,,,-99.99,FreeWX 2.04,2013-08-23 16:11:00,
2013-08-23 11:16:00,90.1,72.3,29.97,North,-999,0.0,0.0,56,0.00,,,-99.99,FreeWX 2.04,2013-08-23 16:16:00,
2013-08-23 11:21:00,90.5,71.6,29.97,North,-999,0.0,0.0,54,0.00,,,-99.99,FreeWX 2.04,2013-08-23 16:21:00,
2013-08-23 11:26:00,90.7,71.2,29.97,North,-999,0.0,0.0,53,0.00,,,-99.99,FreeWX 2.04,2013-08-23 16:26:00,
2013-08-23 11:31:00,90.9,70.7,29.94,North,-999,0.0,0.0,52,0.00,,,-99.99,FreeWX 2.04,2013-08-23 16:31:00,
2013-08-23 11:36:00,90.9,70.2,29.94,North,-999,0.0,0.0,51,0.00,,,-99.99,FreeWX 2.04,2013-08-23 16:36:00,
2013-08-23 11:41:00,91.0,69.8,29.94,North,-999,0.0,0.0,50,0.00,,,-99.99,FreeWX 2.04,2013-08-23 16:41:00,
2013-08-23 11:46:00,91.0,69.3,29.97,North,-999,0.0,0.0,49,0.00,,,-99.99,FreeWX 2.04,2013-08-23 16:46:00,
2013-08-23 11:51:00,91.2,69.3,29.97,North,-999,0.0,0.0,49,0.00,,,-99.99,FreeWX 2.04,2013-08-23 16:51:00,
2013-08-23 11:56:00,91.4,68.9,29.97,North,-999,0.0,0.0,48,0.00,,,-99.99,FreeWX 2.04,2013-08-23 16:56:00,
2013-08-23 12:01:00,91.4,68.4,29.97,North,-999,0.0,0.0,47,0.00,,,-99.99,FreeWX 2.04,2013-08-23 17:01:00,
2013-08-23 12:06:00,91.6,68.5,29.97,North,-999,0.0,0.0,47,0.00,,,-99.99,FreeWX 2.04,2013-08-23 17:06:00,
2013-08-23 12:11:00,91.6,67.8,29.97,North,-999,0.0,0.0,46,0.00,,,-99.99,FreeWX 2.04,2013-08-23 17:11:00,
2013-08-23 12:16:00,91.6,67.8,29.94,North,-999,0.0,0.0,46,0.00,,,-99.99,FreeWX 2.04,2013-08-23 17:16:00,
2013-08-23 12:21:00,91.2,67.5,29.94,North,-999,0.0,0.0,46,0.00,,,-99.99,FreeWX 2.04,2013-08-23 17:21:00,
2013-08-23 12:26:00,91.2,68.2,29.94,North,-999,0.0,0.0,47,0.00,,,-99.99,FreeWX 2.04,2013-08-23 17:26:00,
2013-08-23 12:31:00,90.9,67.8,29.94,North,-999,0.0,0.0,47,0.00,,,-99.99,FreeWX 2.04,2013-08-23 17:31:00,
2013-08-23 12:36:00,90.9,67.8,29.94,North,-999,0.0,0.0,47,0.00,,,-99.99,FreeWX 2.04,2013-08-23 17:36:00,
2013-08-23 12:41:00,90.9,67.8,29.94,North,-999,0.0,0.0,47,0.00,,,-99.99,FreeWX 2.04,2013-08-23 17:41:00,
2013-08-23 12:46:00,90.9,67.8,29.94,North,-999,0.0,0.0,47,0.00,,,-99.99,FreeWX 2.04,2013-08-23 17:46:00,
2013-08-23 12:52:00,90.9,67.1,29.94,North,-999,0.0,0.0,46,0.00,,,-99.99,FreeWX 2.04,2013-08-23 17:52:00,
2013-08-23 12:57:00,90.7,67.6,29.94,North,-999,0.0,0.0,47,0.00,,,-99.99,FreeWX 2.04,2013-08-23 17:57:00,
2013-08-23 13:02:00,90.5,67.5,29.94,North,-999,0.0,0.0,47,0.00,,,-99.99,FreeWX 2.04,2013-08-23 18:02:00,
2013-08-23 13:07:00,90.3,67.3,29.94,North,-999,0.0,0.0,47,0.00,,,-99.99,FreeWX 2.04,2013-08-23 18:07:00,
2013-08-23 13:12:00,90.3,68.0,29.94,North,-999,0.0,0.0,48,0.00,,,-99.99,FreeWX 2.04,2013-08-23 18:12:00,
2013-08-23 13:17:00,90.3,67.3,29.94,North,-999,0.0,0.0,47,0.00,,,-99.99,FreeWX 2.04,2013-08-23 18:17:00,
2013-08-23 13:22:00,90.5,68.7,29.94,North,-999,0.0,0.0,49,0.00,,,-99.99,FreeWX 2.04,2013-08-23 18:22:00,
2013-08-23 13:27:00,90.5,67.5,29.94,North,-999,0.0,0.0,47,0.00,,,-99.99,FreeWX 2.04,2013-08-23 18:27:00,
2013-08-23 13:32:00,90.7,67.6,29.94,North,-999,0.0,0.0,47,0.00,,,-99.99,FreeWX 2.04,2013-08-23 18:32:00,
2013-08-23 13:37:00,90.9,67.8,29.94,North,-999,0.0,0.0,47,0.00,,,-99.99,FreeWX 2.04,2013-08-23 18:37:00,
2013-08-23 13:42:00,90.9,67.1,29.94,North,-999,0.0,0.0,46,0.00,,,-99.99,FreeWX 2.04,2013-08-23 18:42:00,
2013-08-23 13:47:00,90.5,66.2,29.94,North,-999,0.0,0.0,45,0.00,,,-99.99,FreeWX 2.04,2013-08-23 18:47:00,
2013-08-23 13:52:00,90.3,66.7,29.94,North,-999,0.0,0.0,46,0.00,,,-99.99,FreeWX 2.04,2013-08-23 18:52:00,
2013-08-23 13:57:00,90.3,68.0,29.94,North,-999,0.0,0.0,48,0.00,,,-99.99,FreeWX 2.04,2013-08-23 18:57:00,
2013-08-23 14:02:00,90.5,68.0,29.91,North,-999,0.0,0.0,48,0.00,,,-99.99,FreeWX 2.04,2013-08-23 19:02:00,
2013-08-23 14:07:00,90.5,67.5,29.91,North,-999,0.0,0.0,47,0.00,,,-99.99,FreeWX 2.04,2013-08-23 19:07:00,
2013-08-23 14:12:00,90.3,67.3,29.91,North,-999,0.0,0.0,47,0.00,,,-99.99,FreeWX 2.04,2013-08-23 19:12:00,
2013-08-23 14:17:00,90.3,68.0,29.91,North,-999,0.0,0.0,48,0.00,,,-99.99,FreeWX 2.04,2013-08-23 19:17:00,
2013-08-23 14:22:00,90.1,67.8,29.91,North,-999,0.0,0.0,48,0.00,,,-99.99,FreeWX 2.04,2013-08-23 19:22:00,
2013-08-23 14:27:00,89.8,67.5,29.91,North,-999,0.0,0.0,48,0.00,,,-99.99,FreeWX 2.04,2013-08-23 19:27:00,
2013-08-23 14:32:00,89.6,67.8,29.91,North,-999,0.0,0.0,49,0.00,,,-99.99,FreeWX 2.04,2013-08-23 19:32:00,
2013-08-23 14:37:00,89.4,67.6,29.91,North,-999,0.0,0.0,49,0.00,,,-99.99,FreeWX 2.04,2013-08-23 19:37:00,
2013-08-23 14:42:00,89.2,67.5,29.91,North,-999,0.0,0.0,49,0.00,,,-99.99,FreeWX 2.04,2013-08-23 19:42:00,
2013-08-23 14:47:00,89.1,68.5,29.91,North,-999,0.0,0.0,51,0.00,,,-99.99,FreeWX 2.04,2013-08-23 19:47:00,
2013-08-23 14:52:00,89.2,69.3,29.91,North,-999,0.0,0.0,52,0.00,,,-99.99,FreeWX 2.04,2013-08-23 19:52:00,
2013-08-23 14:57:00,89.2,68.7,29.91,North,-999,0.0,0.0,51,0.00,,,-99.99,FreeWX 2.04,2013-08-23 19:57:00,
2013-08-23 15:02:00,89.4,68.4,29.91,North,-999,0.0,0.0,50,0.00,,,-99.99,FreeWX 2.04,2013-08-23 20:02:00,
2013-08-23 15:07:00,89.8,68.0,29.91,North,-999,0.0,0.0,49,0.00,,,-99.99,FreeWX 2.04,2013-08-23 20:07:00,
2013-08-23 15:12:00,90.1,68.4,29.91,North,-999,0.0,0.0,49,0.00,,,-99.99,FreeWX 2.04,2013-08-23 20:12:00,
2013-08-23 15:17:00,90.7,68.2,29.91,North,-999,0.0,0.0,48,0.00,,,-99.99,FreeWX 2.04,2013-08-23 20:17:00,
2013-08-23 15:22:00,90.9,67.8,29.91,North,-999,0.0,0.0,47,0.00,,,-99.99,FreeWX 2.04,2013-08-23 20:22:00,
2013-08-23 15:27:00,91.0,68.0,29.91,North,-999,0.0,0.0,47,0.00,,,-99.99,FreeWX 2.04,2013-08-23 20:27:00,
2013-08-23 15:32:00,91.2,68.2,29.88,North,-999,0.0,0.0,47,0.00,,,-99.99,FreeWX 2.04,2013-08-23 20:32:00,
2013-08-23 15:37:00,91.2,67.5,29.88,North,-999,0.0,0.0,46,0.00,,,-99.99,FreeWX 2.04,2013-08-23 20:37:00,
2013-08-23 15:42:00,91.0,67.3,29.88,North,-999,0.0,0.0,46,0.00,,,-99.99,FreeWX 2.04,2013-08-23 20:42:00,
2013-08-23 15:47:00,90.9,67.1,29.88,North,-999,0.0,0.0,46,0.00,,,-99.99,FreeWX 2.04,2013-08-23 20:47:00,
2013-08-23 15:52:00,90.9,68.4,29.88,North,-999,0.0,0.0,48,0.00,,,-99.99,FreeWX 2.04,2013-08-23 20:52:00,
2013-08-23 15:57:00,90.7,67.1,29.88,North,-999,0.0,0.0,46,0.00,,,-99.99,FreeWX 2.04,2013-08-23 20:57:00,
2013-08-23 16:02:00,90.3,66.7,29.88,North,-999,0.0,0.0,46,0.00,,,-99.99,FreeWX 2.04,2013-08-23 21:02:00,
2013-08-23 16:07:00,90.1,67.1,29.88,North,-999,0.0,0.0,47,0.00,,,-99.99,FreeWX 2.04,2013-08-23 21:07:00,
2013-08-23 16:12:00,90.3,66.7,29.88,North,-999,0.0,0.0,46,0.00,,,-99.99,FreeWX 2.04,2013-08-23 21:12:00,
2013-08-23 16:17:00,90.3,66.7,29.88,North,-999,0.0,0.0,46,0.00,,,-99.99,FreeWX 2.04,2013-08-23 21:17:00,
2013-08-23 16:22:00,90.5,67.5,29.88,North,-999,0.0,0.0,47,0.00,,,-99.99,FreeWX 2.04,2013-08-23 21:22:00,
2013-08-23 16:27:00,90.1,67.1,29.88,North,-999,0.0,0.0,47,0.00,,,-99.99,FreeWX 2.04,2013-08-23 21:27:00,
2013-08-23 16:32:00,90.1,67.1,29.88,North,-999,0.0,0.0,47,0.00,,,-99.99,FreeWX 2.04,2013-08-23 21:32:00,
2013-08-23 16:37:00,90.0,66.4,29.88,North,-999,0.0,0.0,46,0.00,,,-99.99,FreeWX 2.04,2013-08-23 21:37:00,
2013-08-23 16:42:00,90.0,65.7,29.88,North,-999,0.0,0.0,45,0.00,,,-99.99,FreeWX 2.04,2013-08-23 21:42:00,
2013-08-23 16:47:00,90.0,65.7,29.88,North,-999,0.0,0.0,45,0.00,,,-99.99,FreeWX 2.04,2013-08-23 21:47:00,
2013-08-23 16:52:00,90.0,65.7,29.88,North,-999,0.0,0.0,45,0.00,,,-99.99,FreeWX 2.04,2013-08-23 21:52:00,
2013-08-23 16:57:00,90.0,65.7,29.88,North,-999,0.0,0.0,45,0.00,,,-99.99,FreeWX 2.04,2013-08-23 21:57:00,
2013-08-23 17:02:00,90.1,65.8,29.88,North,-999,0.0,0.0,45,0.00,,,-99.99,FreeWX 2.04,2013-08-23 22:02:00,
2013-08-23 17:07:00,90.3,65.5,29.88,North,-999,0.0,0.0,44,0.00,,,-99.99,FreeWX 2.04,2013-08-23 22:07:00,
2013-08-23 17:12:00,90.3,66.0,29.88,North,-999,0.0,0.0,45,0.00,,,-99.99,FreeWX 2.04,2013-08-23 22:12:00,
2013-08-23 17:17:00,90.0,66.4,29.88,North,-999,0.0,0.0,46,0.00,,,-99.99,FreeWX 2.04,2013-08-23 22:17:00,
2013-08-23 17:22:00,89.8,66.7,29.88,North,-999,0.0,0.0,47,0.00,,,-99.99,FreeWX 2.04,2013-08-23 22:22:00,
2013-08-23 17:27:00,89.8,67.5,29.88,North,-999,0.0,0.0,48,0.00,,,-99.99,FreeWX 2.04,2013-08-23 22:27:00,
2013-08-23 17:32:00,89.6,67.3,29.85,North,-999,0.0,0.0,48,0.00,,,-99.99,FreeWX 2.04,2013-08-23 22:32:00,
2013-08-23 17:37:00,89.6,67.8,29.85,North,-999,0.0,0.0,49,0.00,,,-99.99,FreeWX 2.04,2013-08-23 22:37:00,
2013-08-23 17:42:00,89.2,67.5,29.85,North,-999,0.0,0.0,49,0.00,,,-99.99,FreeWX 2.04,2013-08-23 22:42:00,
2013-08-23 17:47:00,88.9,68.4,29.85,North,-999,0.0,0.0,51,0.00,,,-99.99,FreeWX 2.04,2013-08-23 22:47:00,
2013-08-23 17:52:00,88.9,68.4,29.85,North,-999,0.0,0.0,51,0.00,,,-99.99,FreeWX 2.04,2013-08-23 22:52:00,
2013-08-23 17:57:00,88.5,68.0,29.85,North,-999,0.0,0.0,51,0.00,,,-99.99,FreeWX 2.04,2013-08-23 22:57:00,
2013-08-23 18:02:00,88.2,68.4,29.85,North,-999,0.0,0.0,52,0.00,,,-99.99,FreeWX 2.04,2013-08-23 23:02:00,
2013-08-23 18:07:00,87.8,68.5,29.85,North,-999,0.0,0.0,53,0.00,,,-99.99,FreeWX 2.04,2013-08-23 23:07:00,
2013-08-23 18:17:00,87.8,69.6,29.85,North,-999,0.0,0.0,55,0.00,,,-99.99,FreeWX 2.04,2013-08-23 23:17:00,
2013-08-23 18:22:00,87.8,70.2,29.85,North,-999,0.0,0.0,56,0.00,,,-99.99,FreeWX 2.04,2013-08-23 23:22:00,
2013-08-23 18:27:00,88.0,69.8,29.85,North,-999,0.0,0.0,55,0.00,,,-99.99,FreeWX 2.04,2013-08-23 23:27:00,
2013-08-23 18:32:00,88.0,69.3,29.85,North,-999,0.0,0.0,54,0.00,,,-99.99,FreeWX 2.04,2013-08-23 23:32:00,
2013-08-23 18:37:00,87.6,68.9,29.85,North,-999,0.0,0.0,54,0.00,,,-99.99,FreeWX 2.04,2013-08-23 23:37:00,
2013-08-23 18:42:00,87.1,67.8,29.85,North,-999,0.0,0.0,53,0.00,,,-99.99,FreeWX 2.04,2013-08-23 23:42:00,
2013-08-23 18:47:00,86.5,67.8,29.85,North,-999,0.0,0.0,54,0.00,,,-99.99,FreeWX 2.04,2013-08-23 23:47:00,
2013-08-23 18:52:00,86.2,68.5,29.85,North,-999,0.0,0.0,56,0.00,,,-99.99,FreeWX 2.04,2013-08-23 23:52:00,
2013-08-23 18:57:00,85.8,69.3,29.85,North,-999,0.0,0.0,58,0.00,,,-99.99,FreeWX 2.04,2013-08-23 23:57:00,
2013-08-23 19:02:00,85.6,69.1,29.85,North,-999,0.0,0.0,58,0.00,,,-99.99,FreeWX 2.04,2013-08-24 00:02:00,
2013-08-23 19:07:00,85.6,69.6,29.85,North,-999,0.0,0.0,59,0.00,,,-99.99,FreeWX 2.04,2013-08-24 00:07:00,
2013-08-23 19:12:00,85.6,70.2,29.85,North,-999,0.0,0.0,60,0.00,,,-99.99,FreeWX 2.04,2013-08-24 00:12:00,
2013-08-23 19:17:00,85.5,70.0,29.88,North,-999,0.0,0.0,60,0.00,,,-99.99,FreeWX 2.04,2013-08-24 00:17:00,
2013-08-23 19:22:00,85.5,70.5,29.88,North,-999,0.0,0.0,61,0.00,,,-99.99,FreeWX 2.04,2013-08-24 00:22:00,
2013-08-23 19:27:00,85.3,70.7,29.88,North,-999,0.0,0.0,62,0.00,,,-99.99,FreeWX 2.04,2013-08-24 00:27:00,
2013-08-23 19:32:00,85.1,70.5,29.88,North,-999,0.0,0.0,62,0.00,,,-99.99,FreeWX 2.04,2013-08-24 00:32:00,
2013-08-23 19:37:00,84.9,70.9,29.88,North,-999,0.0,0.0,63,0.00,,,-99.99,FreeWX 2.04,2013-08-24 00:37:00,
2013-08-23 19:42:00,84.6,71.1,29.88,North,-999,0.0,0.0,64,0.00,,,-99.99,FreeWX 2.04,2013-08-24 00:42:00,
2013-08-23 19:47:00,84.4,71.2,29.85,North,-999,0.0,0.0,65,0.00,,,-99.99,FreeWX 2.04,2013-08-24 00:47:00,
2013-08-23 19:52:00,84.4,71.8,29.85,North,-999,0.0,0.0,66,0.00,,,-99.99,FreeWX 2.04,2013-08-24 00:52:00,
2013-08-23 19:57:00,84.2,72.0,29.85,North,-999,0.0,0.0,67,0.00,,,-99.99,FreeWX 2.04,2013-08-24 00:57:00,
2013-08-23 20:02:00,84.2,72.0,29.88,North,-999,0.0,0.0,67,0.00,,,-99.99,FreeWX 2.04,2013-08-24 01:02:00,
2013-08-23 20:07:00,84.2,72.5,29.88,North,-999,0.0,0.0,68,0.00,,,-99.99,FreeWX 2.04,2013-08-24 01:07:00,
2013-08-23 20:12:00,84.0,72.7,29.88,North,-999,0.0,0.0,69,0.00,,,-99.99,FreeWX 2.04,2013-08-24 01:12:00,
2013-08-23 20:17:00,83.8,72.5,29.88,North,-999,0.0,0.0,69,0.00,,,-99.99,FreeWX 2.04,2013-08-24 01:17:00,
2013-08-23 20:22:00,83.8,72.5,29.88,North,-999,0.0,0.0,69,0.00,,,-99.99,FreeWX 2.04,2013-08-24 01:22:00,
2013-08-23 20:27:00,83.8,72.5,29.88,North,-999,0.0,0.0,69,0.00,,,-99.99,FreeWX 2.04,2013-08-24 01:27:00,
2013-08-23 20:32:00,83.7,72.3,29.88,North,-999,0.0,0.0,69,0.00,,,-99.99,FreeWX 2.04,2013-08-24 01:32:00,
2013-08-23 20:37:00,83.5,72.7,29.88,North,-999,0.0,0.0,70,0.00,,,-99.99,FreeWX 2.04,2013-08-24 01:37:00,
2013-08-23 20:42:00,83.7,72.9,29.88,North,-999,0.0,0.0,70,0.00,,,-99.99,FreeWX 2.04,2013-08-24 01:42:00,
2013-08-23 20:47:00,83.5,72.7,29.88,North,-999,0.0,0.0,70,0.00,,,-99.99,FreeWX 2.04,2013-08-24 01:47:00,
2013-08-23 20:52:00,83.3,72.9,29.88,North,-999,0.0,0.0,71,0.00,,,-99.99,FreeWX 2.04,2013-08-24 01:52:00,
2013-08-23 20:57:00,83.3,72.9,29.88,North,-999,0.0,0.0,71,0.00,,,-99.99,FreeWX 2.04,2013-08-24 01:57:00,
2013-08-23 21:02:00,83.1,72.7,29.88,North,-999,0.0,0.0,71,0.00,,,-99.99,FreeWX 2.04,2013-08-24 02:02:00,
2013-08-23 21:07:00,83.1,72.7,29.88,North,-999,0.0,0.0,71,0.00,,,-99.99,FreeWX 2.04,2013-08-24 02:07:00,
2013-08-23 21:12:00,82.9,72.5,29.88,North,-999,0.0,0.0,71,0.00,,,-99.99,FreeWX 2.04,2013-08-24 02:12:00,
2013-08-23 21:17:00,83.1,72.7,29.88,North,-999,0.0,0.0,71,0.00,,,-99.99,FreeWX 2.04,2013-08-24 02:17:00,
2013-08-23 21:22:00,83.3,72.9,29.88,North,-999,0.0,0.0,71,0.00,,,-99.99,FreeWX 2.04,2013-08-24 02:22:00,
2013-08-23 21:27:00,83.3,72.9,29.88,North,-999,0.0,0.0,71,0.00,,,-99.99,FreeWX 2.04,2013-08-24 02:27:00,
2013-08-23 21:32:00,83.3,72.5,29.88,North,-999,0.0,0.0,70,0.00,,,-99.99,FreeWX 2.04,2013-08-24 02:32:00,
2013-08-23 21:37:00,83.3,72.5,29.88,North,-999,0.0,0.0,70,0.00,,,-99.99,FreeWX 2.04,2013-08-24 02:37:00,
2013-08-23 21:42:00,83.1,71.8,29.88,North,-999,0.0,0.0,69,0.00,,,-99.99,FreeWX 2.04,2013-08-24 02:42:00,
2013-08-23 21:47:00,82.9,71.8,29.88,North,-999,0.0,0.0,69,0.00,,,-99.99,FreeWX 2.04,2013-08-24 02:47:00,
2013-08-23 21:52:00,82.9,71.8,29.88,North,-999,0.0,0.0,69,0.00,,,-99.99,FreeWX 2.04,2013-08-24 02:52:00,
2013-08-23 21:57:00,82.9,72.1,29.88,North,-999,0.0,0.0,70,0.00,,,-99.99,FreeWX 2.04,2013-08-24 02:57:00,
2013-08-23 22:02:00,83.1,72.3,29.88,North,-999,0.0,0.0,70,0.00,,,-99.99,FreeWX 2.04,2013-08-24 03:02:00,
2013-08-23 22:07:00,82.9,72.1,29.88,North,-999,0.0,0.0,70,0.00,,,-99.99,FreeWX 2.04,2013-08-24 03:07:00,
2013-08-23 22:12:00,82.8,72.0,29.88,North,-999,0.0,0.0,70,0.00,,,-99.99,FreeWX 2.04,2013-08-24 03:12:00,
2013-08-23 22:17:00,82.4,71.6,29.88,North,-999,0.0,0.0,70,0.00,,,-99.99,FreeWX 2.04,2013-08-24 03:17:00,
2013-08-23 22:22:00,82.6,71.8,29.88,North,-999,0.0,0.0,70,0.00,,,-99.99,FreeWX 2.04,2013-08-24 03:22:00,
2013-08-23 22:27:00,82.4,71.6,29.88,North,-999,0.0,0.0,70,0.00,,,-99.99,FreeWX 2.04,2013-08-24 03:27:00,
2013-08-23 22:32:00,82.4,72.0,29.88,North,-999,0.0,0.0,71,0.00,,,-99.99,FreeWX 2.04,2013-08-24 03:32:00,
2013-08-23 22:37:00,82.2,71.8,29.88,North,-999,0.0,0.0,71,0.00,,,-99.99,FreeWX 2.04,2013-08-24 03:37:00,
2013-08-23 22:42:00,82.2,72.3,29.88,North,-999,0.0,0.0,72,0.00,,,-99.99,FreeWX 2.04,2013-08-24 03:42:00,
2013-08-23 22:47:00,82.0,72.1,29.91,North,-999,0.0,0.0,72,0.00,,,-99.99,FreeWX 2.04,2013-08-24 03:47:00,
2013-08-23 22:52:00,82.0,72.1,29.91,North,-999,0.0,0.0,72,0.00,,,-99.99,FreeWX 2.04,2013-08-24 03:52:00,
2013-08-23 22:57:00,82.0,72.5,29.91,North,-999,0.0,0.0,73,0.00,,,-99.99,FreeWX 2.04,2013-08-24 03:57:00,
2013-08-23 23:02:00,82.0,72.9,29.91,North,-999,0.0,0.0,74,0.00,,,-99.99,FreeWX 2.04,2013-08-24 04:02:00,
2013-08-23 23:07:00,82.0,72.9,29.91,North,-999,0.0,0.0,74,0.00,,,-99.99,FreeWX 2.04,2013-08-24 04:07:00,
2013-08-23 23:12:00,82.0,72.9,29.91,North,-999,0.0,0.0,74,0.00,,,-99.99,FreeWX 2.04,2013-08-24 04:12:00,
2013-08-23 23:17:00,82.0,73.2,29.91,North,-999,0.0,0.0,75,0.00,,,-99.99,FreeWX 2.04,2013-08-24 04:17:00,
2013-08-23 23:22:00,82.0,73.2,29.91,North,-999,0.0,0.0,75,0.00,,,-99.99,FreeWX 2.04,2013-08-24 04:22:00,
2013-08-23 23:27:00,82.0,73.2,29.91,North,-999,0.0,0.0,75,0.00,,,-99.99,FreeWX 2.04,2013-08-24 04:27:00,
2013-08-23 23:32:00,81.9,73.2,29.91,North,-999,0.0,0.0,75,0.00,,,-99.99,FreeWX 2.04,2013-08-24 04:32:00,
2013-08-23 23:37:00,81.9,73.6,29.91,North,-999,0.0,0.0,76,0.00,,,-99.99,FreeWX 2.04,2013-08-24 04:37:00,
2013-08-23 23:42:00,82.0,73.8,29.91,North,-999,0.0,0.0,76,0.00,,,-99.99,FreeWX 2.04,2013-08-24 04:42:00,
2013-08-23 23:47:00,82.0,73.8,29.91,North,-999,0.0,0.0,76,0.00,,,-99.99,FreeWX 2.04,2013-08-24 04:47:00,
2013-08-23 23:52:00,82.0,73.8,29.91,North,-999,0.0,0.0,76,0.00,,,-99.99,FreeWX 2.04,2013-08-24 04:52:00,
2013-08-23 23:57:00,82.0,73.8,29.91,North,-999,0.0,0.0,76,0.00,,,-99.99,FreeWX 2.04,2013-08-24 04:57:00,